Miscellaneous Local Product
Issued by NWS North Platte, NE

Home | Current Version | Previous Version | Text Only | Print | Product List | Glossary On
Versions: 1 2 3 4 5 6 7 8 9 10 11 12 13 14 15 16 17 18 19 20 21 22 23 24 25 26 27 28 29 30 31 32 33 34 35 36 37 38 39 40 41 42 43 44 45 46 47 48 49 50
000
AXUS43 KLBF 051610
MISLBF


WESTERN AND NORTH CENTRAL NEBRASKA HOURLY WEATHER ROUNDUP
NATIONAL WEATHER SERVICE NORTH PLATTE NE
1100 AM CDT SUN JUL 05 2015

***STATIONS NOT REPORTING VARIABLES SUCH AS SKY/WEATHER OR
PRESSURE ARE PROVIDED BY THE NEBRASKA DEPARTMENT OF
ROADS...RAWS...AND APRS NETWORKS...AND ARE NOT UNDER
NATIONAL WEATHER SERVICE QUALITY CONTROL***

...OBSERVATIONS IN AND NEAR THE EASTERN PANHANDLE OF NEBRASKA...

CITY           SKY/WX    TMP DP  RH WIND       PRES   REMARKS
PINE RIDGE     MOSUNNY   83  67  58 S8        29.79S
CHADRON        PTSUNNY   82  66  58 CALM      29.79S
ALLIANCE       SUNNY     81  66  60 SW8       29.85F
SIDNEY         SUNNY     87  54  32 SW5       29.91S
WHITECLAY        N/A     83  66  56 S10         N/A
CRESCENT LAKE    N/A     84  67  55 S5          N/A
BIG SPRINGS      N/A     84  63  49 NW3         N/A
$$

...OBSERVATIONS IN NORTH CENTRAL NEBRASKA...

CITY           SKY/WX    TMP DP  RH WIND       PRES   REMARKS
VALENTINE      SUNNY     85  67  54 S14       29.80S
THEDFORD       SUNNY     83  67  57 S10       29.83F
AINSWORTH      SUNNY     83  68  59 S14       29.83R
O`NEILL        MOSUNNY   80  69  71 SE13G22   29.85F
ORD            MOSUNNY   78  67  68 SE16      29.85F
BROKEN BOW     SUNNY     81  69  67 SE14G25   29.86S
VALENTINE NWR    N/A     82  68  62 S13G20      N/A
SPRINGVIEW       N/A     84  69  59 SW7G14      N/A
HALSEY           N/A     83  65  55 S8G16       N/A
BREWSTER         N/A     84  72  65 S18         N/A  HX  90
ROSE             N/A     89  81  78 S22         N/A  HX 108
NEWPORT          N/A     82  70  67 S13         N/A
SARGENT          N/A     77  69  75 S3          N/A
CHAMBERS         N/A     83  71  67 SE10        N/A
EWING            N/A     77  71  82 S8G16       N/A
$$

...OBSERVATIONS IN SOUTHWEST NEBRASKA AND FAR NORTHEAST COLORADO...

CITY           SKY/WX    TMP DP  RH WIND       PRES   REMARKS
WRAY           FAIR      93  53  25 CALM      29.86F HX  90
HOLYOKE        FAIR      88  61  40 SW6       29.86F
IMPERIAL       SUNNY     84  62  47 S7        29.84F
OGALLALA       SUNNY     82  63  52 CALM      29.84S
NORTH PLATTE   SUNNY     85  65  51 S10       29.83F
MCCOOK         SUNNY     89  62  40 S12       29.83F
LEXINGTON      SUNNY     83  69  62 SE10G16   29.85F
PAXTON           N/A     86  69  56 S3          N/A  HX  90
GOTHENBURG       N/A     82  65  56 SE6         N/A
CALLAWAY         N/A     82  73  74 S13         N/A
$$

...NORTH PLATTE AREA...

CITY           SKY/WX    TMP DP  RH WIND       PRES   REMARKS
AIRPORT        SUNNY     85  65  51 S10       29.83F
DOWNTOWN         N/A     84  67  55 S3G12       N/A
HILLCREST        N/A     83  66  56 S10         N/A
$$

...SOME WEATHER OBSERVATIONS FROM AROUND THE REGION...

CITY           SKY/WX    TMP DP  RH WIND       PRES   REMARKS
DENVER         PTSUNNY   85  46  25 CALM      29.99F
LARAMIE        SUNNY     77  48  35 W10       30.13F
CHEYENNE       SUNNY     83  51  33 W13       30.03S
SCOTTSBLUFF    SUNNY     83  64  52 CALM      29.87S
RAPID CITY     MOSUNNY   78  65  63 N18G25    29.83R
PIERRE         PTSUNNY   80  69  69 E8        29.75R
WINNER         FAIR      86  66  51 S17       29.76F
SIOUX FALLS    MOSUNNY   76  68  76 S18G25    29.82F
OMAHA          CLOUDY    72  66  81 N7        29.97R
GRAND ISLAND   MOSUNNY   79  69  71 SE14      29.90F
KANSAS CITY    CLOUDY    80  72  76 S9        29.98F
WICHITA        MOSUNNY   87  70  56 S18       29.94F HX  92
HAYS           SUNNY     90  64  43 S18G24    29.86S HX  91
LIBERAL        SUNNY     88  64  45 S23G29    29.97R
GOODLAND       SUNNY     87  59  38 S9        29.88S
$$



USA.gov is the U.S. government's official web portal to all federal, state and local government web resources and services.